AZU2620 SBBE-SBSL

Flight info

Callsign AZU2620
Flight time 0h 47m
Altitude 33000
Route ITAKI UZ81 SAVIO
Aircraft A20N/M-SDE2E3FGHIRWXY/LB1

Departure

Time 2026-04-22 01:36
Airport Val de Cans/Júlio Cezar Ribeiro International Airport (SBBE)

Arrival

Time 2026-04-22 02:23
Airport Marechal Cunha Machado International Airport (SBSL)
Time Latitude Longitude Altitude Speed Heading
2026-04-22 01:18 -1.38999 -48.47882 61 ft 0 kts 275°
2026-04-22 01:27 -1.38999 -48.47877 61 ft 2 kts 275°
2026-04-22 01:27 -1.39000 -48.47862 61 ft 2 kts 275°
2026-04-22 01:27 -1.39002 -48.47847 61 ft 2 kts 290°
2026-04-22 01:27 -1.39010 -48.47834 61 ft 2 kts 311°
2026-04-22 01:28 -1.39022 -48.47824 61 ft 2 kts 334°
2026-04-22 01:28 -1.39036 -48.47820 61 ft 2 kts 356°
2026-04-22 01:28 -1.39044 -48.47820 61 ft 1 kts
2026-04-22 01:28 -1.39048 -48.47821 61 ft 0 kts
2026-04-22 01:31 -1.39042 -48.47820 61 ft 2 kts
2026-04-22 01:31 -1.39019 -48.47817 61 ft 4 kts
2026-04-22 01:31 -1.38980 -48.47813 61 ft 6 kts
2026-04-22 01:32 -1.38925 -48.47809 61 ft 9 kts
2026-04-22 01:32 -1.38852 -48.47803 61 ft 11 kts
2026-04-22 01:32 -1.38767 -48.47796 61 ft 12 kts
2026-04-22 01:32 -1.38680 -48.47800 61 ft 12 kts 307°
2026-04-22 01:33 -1.38677 -48.47893 61 ft 14 kts 267°
2026-04-22 01:33 -1.38679 -48.47995 61 ft 14 kts 269°
2026-04-22 01:33 -1.38682 -48.48102 61 ft 15 kts 268°
2026-04-22 01:33 -1.38685 -48.48212 61 ft 15 kts 257°
2026-04-22 01:34 -1.38748 -48.48282 61 ft 13 kts 223°
2026-04-22 01:34 -1.38808 -48.48342 61 ft 12 kts 237°
2026-04-22 01:34 -1.38823 -48.48429 61 ft 13 kts 269°
2026-04-22 01:34 -1.38778 -48.48472 61 ft 8 kts 35°
2026-04-22 01:35 -1.38751 -48.48439 61 ft 0 kts 46°
2026-04-22 01:35 -1.38640 -48.48326 61 ft 59 kts 45°
2026-04-22 01:35 -1.38172 -48.47854 61 ft 127 kts 46°
2026-04-22 01:35 -1.37402 -48.47078 78 ft 179 kts 47°
2026-04-22 01:36 -1.36520 -48.46173 638 ft 183 kts 48°
2026-04-22 01:36 -1.35662 -48.45240 1285 ft 186 kts 51°
2026-04-22 01:36 -1.35038 -48.44118 1899 ft 189 kts 84°
2026-04-22 01:36 -1.35238 -48.42806 2492 ft 200 kts 103°
2026-04-22 01:37 -1.35505 -48.41404 3076 ft 213 kts 96°
2026-04-22 01:37 -1.35679 -48.39868 3635 ft 228 kts 95°
2026-04-22 01:37 -1.35854 -48.38295 4399 ft 234 kts 96°
2026-04-22 01:37 -1.36048 -48.36672 5222 ft 237 kts 97°
2026-04-22 01:38 -1.36249 -48.35062 6014 ft 240 kts 97°
2026-04-22 01:38 -1.36549 -48.33395 6804 ft 244 kts 103°
2026-04-22 01:38 -1.37024 -48.31748 7447 ft 255 kts 108°
2026-04-22 01:38 -1.37622 -48.30029 7910 ft 271 kts 109°
2026-04-22 01:39 -1.38260 -48.28230 8595 ft 279 kts 109°
2026-04-22 01:39 -1.38913 -48.26387 9336 ft 284 kts 109°
2026-04-22 01:39 -1.39576 -48.24514 10044 ft 289 kts 109°
2026-04-22 01:39 -1.40247 -48.22616 10586 ft 300 kts 109°
2026-04-22 01:40 -1.40964 -48.20584 10946 ft 317 kts 109°
2026-04-22 01:40 -1.41724 -48.18430 11324 ft 333 kts 109°
2026-04-22 01:40 -1.42491 -48.16253 11920 ft 339 kts 109°
2026-04-22 01:40 -1.43284 -48.14007 12602 ft 343 kts 109°
2026-04-22 01:41 -1.44078 -48.11749 13246 ft 347 kts 109°
2026-04-22 01:41 -1.44879 -48.09472 13857 ft 352 kts 109°
2026-04-22 01:41 -1.45702 -48.07129 14484 ft 356 kts 109°
2026-04-22 01:41 -1.46517 -48.04811 15133 ft 358 kts 109°
2026-04-22 01:42 -1.47347 -48.02451 15751 ft 360 kts 109°
2026-04-22 01:42 -1.48172 -48.00107 16317 ft 364 kts 109°
2026-04-22 01:42 -1.49016 -47.97711 16871 ft 367 kts 110°
2026-04-22 01:42 -1.49867 -47.95289 17436 ft 370 kts 110°
2026-04-22 01:43 -1.50728 -47.92845 17987 ft 372 kts 110°
2026-04-22 01:43 -1.51587 -47.90409 18543 ft 374 kts 109°
2026-04-22 01:43 -1.52443 -47.87973 19100 ft 376 kts 109°
2026-04-22 01:43 -1.53310 -47.85511 19639 ft 377 kts 109°
2026-04-22 01:44 -1.54187 -47.83017 20154 ft 379 kts 109°
2026-04-22 01:44 -1.55060 -47.80538 20648 ft 381 kts 109°
2026-04-22 01:44 -1.55951 -47.78003 21138 ft 383 kts 109°
2026-04-22 01:44 -1.56837 -47.75483 21626 ft 385 kts 109°
2026-04-22 01:45 -1.57717 -47.72978 22089 ft 387 kts 109°
2026-04-22 01:45 -1.58622 -47.70404 22530 ft 390 kts 109°
2026-04-22 01:45 -1.59516 -47.67863 22990 ft 391 kts 109°
2026-04-22 01:45 -1.60422 -47.65284 23428 ft 394 kts 109°
2026-04-22 01:46 -1.61338 -47.62678 23874 ft 396 kts 109°
2026-04-22 01:46 -1.62254 -47.60070 24306 ft 398 kts 109°
2026-04-22 01:46 -1.63168 -47.57469 24723 ft 401 kts 108°
2026-04-22 01:46 -1.64096 -47.54828 25148 ft 403 kts 108°
2026-04-22 01:47 -1.65025 -47.52180 25565 ft 405 kts 108°
2026-04-22 01:47 -1.65959 -47.49513 25948 ft 407 kts 108°
2026-04-22 01:47 -1.66896 -47.46842 26307 ft 410 kts 108°
2026-04-22 01:47 -1.67847 -47.44138 26693 ft 412 kts 108°
2026-04-22 01:48 -1.68791 -47.41432 27067 ft 414 kts 107°
2026-04-22 01:48 -1.69641 -47.38679 27409 ft 416 kts 105°
2026-04-22 01:48 -1.70445 -47.35888 27746 ft 418 kts 104°
2026-04-22 01:48 -1.71254 -47.33054 28130 ft 419 kts 104°
2026-04-22 01:49 -1.72051 -47.30257 28481 ft 421 kts 104°
2026-04-22 01:49 -1.72857 -47.27428 28829 ft 423 kts 104°
2026-04-22 01:49 -1.73662 -47.24604 29284 ft 422 kts 104°
2026-04-22 01:49 -1.74467 -47.21777 29774 ft 421 kts 104°
2026-04-22 01:50 -1.75267 -47.18971 30267 ft 419 kts 104°
2026-04-22 01:50 -1.76060 -47.16191 30732 ft 418 kts 104°
2026-04-22 01:50 -1.76852 -47.13403 31175 ft 418 kts 104°
2026-04-22 01:50 -1.77647 -47.10611 31595 ft 418 kts 104°
2026-04-22 01:51 -1.78451 -47.07780 31972 ft 419 kts 104°
2026-04-22 01:51 -1.79249 -47.04980 32322 ft 420 kts 104°
2026-04-22 01:51 -1.80042 -47.02190 32650 ft 421 kts 104°
2026-04-22 01:51 -1.80855 -46.99341 32945 ft 423 kts 104°
2026-04-22 01:52 -1.82462 -46.93683 32954 ft 424 kts 104°
2026-04-22 01:52 -1.84101 -46.87927 32957 ft 436 kts 104°
2026-04-22 01:53 -1.85789 -46.81996 32958 ft 452 kts 104°
2026-04-22 01:53 -1.87534 -46.75861 32957 ft 461 kts 104°
2026-04-22 01:54 -1.89296 -46.69673 32958 ft 462 kts 104°
2026-04-22 01:54 -1.91047 -46.63521 32958 ft 463 kts 104°
2026-04-22 01:55 -1.92814 -46.57313 32955 ft 462 kts 104°
2026-04-22 01:55 -1.94570 -46.51140 32957 ft 461 kts 104°
2026-04-22 01:56 -1.96324 -46.44967 32960 ft 461 kts 104°
2026-04-22 01:56 -1.98077 -46.38796 32967 ft 461 kts 104°
2026-04-22 01:57 -1.99852 -46.32554 32968 ft 461 kts 104°
2026-04-22 01:57 -2.01606 -46.26382 32964 ft 461 kts 104°
2026-04-22 01:58 -2.03361 -46.20202 32966 ft 460 kts 104°
2026-04-22 01:58 -2.05107 -46.14057 32964 ft 458 kts 104°
2026-04-22 01:59 -2.06840 -46.07951 32958 ft 459 kts 104°
2026-04-22 01:59 -2.08576 -46.01834 32952 ft 448 kts 104°
2026-04-22 02:00 -2.09417 -45.98879 32958 ft 430 kts 104°
2026-04-22 02:00 -2.10228 -45.96027 32962 ft 422 kts 104°
2026-04-22 02:00 -2.11024 -45.93218 32860 ft 423 kts 104°
2026-04-22 02:00 -2.11828 -45.90378 32130 ft 427 kts 104°
2026-04-22 02:01 -2.12643 -45.87501 31410 ft 428 kts 104°
2026-04-22 02:01 -2.13452 -45.84648 30724 ft 429 kts 104°
2026-04-22 02:01 -2.14262 -45.81789 30025 ft 429 kts 104°
2026-04-22 02:01 -2.15079 -45.78909 29313 ft 430 kts 104°
2026-04-22 02:02 -2.15892 -45.76047 28609 ft 431 kts 104°
2026-04-22 02:02 -2.16714 -45.73150 27903 ft 432 kts 105°
2026-04-22 02:02 -2.17532 -45.70268 27315 ft 429 kts 105°
2026-04-22 02:02 -2.18332 -45.67444 26844 ft 424 kts 105°
2026-04-22 02:03 -2.19136 -45.64610 26364 ft 420 kts 105°
2026-04-22 02:03 -2.19921 -45.61841 25893 ft 415 kts 105°
2026-04-22 02:03 -2.20708 -45.59059 25414 ft 411 kts 105°
2026-04-22 02:03 -2.21478 -45.56338 24944 ft 407 kts 105°
2026-04-22 02:04 -2.23005 -45.50945 23999 ft 400 kts 105°
2026-04-22 02:04 -2.23763 -45.48267 23530 ft 397 kts 105°
2026-04-22 02:04 -2.24512 -45.45618 23073 ft 394 kts 105°
2026-04-22 02:05 -2.25252 -45.43001 22612 ft 391 kts 105°
2026-04-22 02:05 -2.25995 -45.40377 22153 ft 388 kts 105°
2026-04-22 02:05 -2.26719 -45.37823 21709 ft 386 kts 105°
2026-04-22 02:05 -2.27454 -45.35232 21251 ft 383 kts 105°
2026-04-22 02:06 -2.28188 -45.32655 20772 ft 381 kts 105°
2026-04-22 02:06 -2.28910 -45.30114 20294 ft 380 kts 105°
2026-04-22 02:06 -2.29633 -45.27568 19816 ft 378 kts 105°
2026-04-22 02:06 -2.30346 -45.25052 19343 ft 375 kts 105°
2026-04-22 02:07 -2.31050 -45.22569 18873 ft 373 kts 105°
2026-04-22 02:07 -2.31752 -45.20089 18406 ft 370 kts 105°
2026-04-22 02:07 -2.32451 -45.17622 17935 ft 368 kts 105°
2026-04-22 02:07 -2.33151 -45.15148 17469 ft 366 kts 105°
2026-04-22 02:08 -2.33835 -45.12732 17014 ft 363 kts 105°
2026-04-22 02:08 -2.34518 -45.10316 16554 ft 361 kts 105°
2026-04-22 02:08 -2.35202 -45.07899 16089 ft 358 kts 105°
2026-04-22 02:08 -2.35882 -45.05494 15625 ft 356 kts 105°
2026-04-22 02:09 -2.36549 -45.03136 15171 ft 354 kts 105°
2026-04-22 02:09 -2.37213 -45.00787 14718 ft 351 kts 105°
2026-04-22 02:09 -2.37873 -44.98453 14276 ft 348 kts 105°
2026-04-22 02:09 -2.38532 -44.96121 13829 ft 345 kts 105°
2026-04-22 02:10 -2.39185 -44.93811 13382 ft 343 kts 105°
2026-04-22 02:10 -2.39832 -44.91528 12939 ft 340 kts 105°
2026-04-22 02:10 -2.40518 -44.89293 12498 ft 338 kts 109°
2026-04-22 02:10 -2.41424 -44.87119 12039 ft 336 kts 115°
2026-04-22 02:11 -2.42517 -44.85059 11566 ft 334 kts 118°
2026-04-22 02:11 -2.43652 -44.83040 11120 ft 332 kts 119°
2026-04-22 02:11 -2.44779 -44.81047 10668 ft 330 kts 119°
2026-04-22 02:11 -2.45917 -44.79035 10272 ft 325 kts 119°
2026-04-22 02:12 -2.47017 -44.77086 10064 ft 314 kts 118°
2026-04-22 02:12 -2.48055 -44.75245 9981 ft 300 kts 118°
2026-04-22 02:12 -2.49059 -44.73462 9907 ft 286 kts 118°
2026-04-22 02:12 -2.50024 -44.71744 9564 ft 283 kts 118°
2026-04-22 02:13 -2.50986 -44.70032 9189 ft 282 kts 118°
2026-04-22 02:13 -2.51948 -44.68321 8834 ft 279 kts 118°
2026-04-22 02:13 -2.52891 -44.66643 8489 ft 277 kts 118°
2026-04-22 02:13 -2.53831 -44.64971 8145 ft 275 kts 118°
2026-04-22 02:14 -2.54771 -44.63298 7800 ft 272 kts 118°
2026-04-22 02:14 -2.55685 -44.61672 7463 ft 270 kts 119°
2026-04-22 02:14 -2.56611 -44.60023 7127 ft 268 kts 119°
2026-04-22 02:14 -2.57523 -44.58402 6794 ft 266 kts 119°
2026-04-22 02:15 -2.58417 -44.56812 6467 ft 264 kts 118°
2026-04-22 02:15 -2.59317 -44.55210 6140 ft 262 kts 118°
2026-04-22 02:15 -2.60204 -44.53632 5817 ft 260 kts 118°
2026-04-22 02:15 -2.61097 -44.52044 5488 ft 258 kts 118°
2026-04-22 02:16 -2.61970 -44.50491 5159 ft 257 kts 118°
2026-04-22 02:16 -2.62846 -44.48932 4839 ft 255 kts 118°
2026-04-22 02:16 -2.63708 -44.47398 4520 ft 254 kts 118°
2026-04-22 02:16 -2.64575 -44.45856 4209 ft 252 kts 118°
2026-04-22 02:17 -2.65438 -44.44321 3986 ft 247 kts 118°
2026-04-22 02:17 -2.66289 -44.42888 3961 ft 232 kts 122°
2026-04-22 02:17 -2.67220 -44.41606 3811 ft 226 kts 127°
2026-04-22 02:17 -2.68205 -44.40391 3554 ft 223 kts 128°
2026-04-22 02:18 -2.69180 -44.39197 3301 ft 221 kts 128°
2026-04-22 02:18 -2.70154 -44.38005 3052 ft 217 kts 128°
2026-04-22 02:18 -2.71104 -44.36840 2806 ft 214 kts 128°
2026-04-22 02:18 -2.71868 -44.35587 2547 ft 209 kts 100°
2026-04-22 02:19 -2.71713 -44.34211 2390 ft 199 kts 62°
2026-04-22 02:19 -2.70852 -44.33202 2554 ft 182 kts 41°
2026-04-22 02:19 -2.69886 -44.32462 2532 ft 164 kts 37°
2026-04-22 02:19 -2.68997 -44.31810 2411 ft 153 kts 38°
2026-04-22 02:20 -2.68165 -44.31169 2212 ft 151 kts 39°
2026-04-22 02:20 -2.67345 -44.30514 2048 ft 150 kts 39°
2026-04-22 02:20 -2.66528 -44.29853 1856 ft 146 kts 39°
2026-04-22 02:20 -2.65751 -44.29223 1647 ft 141 kts 39°
2026-04-22 02:21 -2.64991 -44.28608 1464 ft 140 kts 39°
2026-04-22 02:21 -2.64237 -44.27999 1285 ft 139 kts 39°
2026-04-22 02:21 -2.63480 -44.27389 1107 ft 139 kts 39°
2026-04-22 02:21 -2.62719 -44.26775 929 ft 139 kts 39°
2026-04-22 02:22 -2.61975 -44.26174 753 ft 138 kts 40°
2026-04-22 02:22 -2.61221 -44.25567 573 ft 138 kts 40°
2026-04-22 02:22 -2.60472 -44.24963 397 ft 138 kts 40°
2026-04-22 02:22 -2.59717 -44.24352 232 ft 138 kts 40°
2026-04-22 02:23 -2.58994 -44.23766 182 ft 123 kts 39°
2026-04-22 02:23 -2.58566 -44.23422 182 ft 28 kts 38°
2026-04-22 02:23 -2.58491 -44.23389 182 ft 6 kts 329°
2026-04-22 02:23 -2.58462 -44.23421 182 ft 6 kts 306°
2026-04-22 02:24 -2.58445 -44.23465 182 ft 7 kts 259°
2026-04-22 02:24 -2.58464 -44.23520 182 ft 9 kts 251°
2026-04-22 02:24 -2.58488 -44.23582 182 ft 10 kts 248°
2026-04-22 02:24 -2.58512 -44.23644 182 ft 7 kts 250°
2026-04-22 02:25 -2.58489 -44.23677 182 ft 7 kts 341°
2026-04-22 02:25 -2.58455 -44.23689 182 ft 2 kts 340°
2026-04-22 02:25 -2.58454 -44.23689 182 ft 0 kts 340°